EW5598 Weather Reports


time (UTC)temp
C
wind
direction
speed
KPH
gust
KPH
rain 1hr
cm
rain 24hr
cm
rain mn
cm
humidity
%
barometer
mb
20260506214503 20 290 1.6 0.0 0.00 0.00 0.00 31 1005.7
20260506213002 20 291 3.2 0.0 0.00 0.00 0.00 31 1005.8
20260506211501 20 290 3.2 0.0 0.00 0.00 0.00 29 1006.0
20260506210126 20 288 1.6 0.0 0.00 0.00 0.00 31 1005.9
20260506204600 19 283 4.8 0.0 0.00 0.00 0.00 29 1006.0
20260506203103 20 269 3.2 0.0 0.00 0.00 0.00 28 1006.1
20260506201556 19 269 3.2 0.0 0.00 0.00 0.00 32 1006.3
20260506200136 19 258 3.2 0.0 0.00 0.00 0.00 31 1006.6
20260506194555 19 252 4.8 0.0 0.00 0.00 0.00 28 1006.6
20260506193047 18 283 4.8 0.0 0.00 0.00 0.00 35 1007.1
20260506191546 17 245 3.2 0.0 0.00 0.00 0.00 29 1007.6
20260506190038 17 299 3.2 0.0 0.00 0.00 0.00 28 1008.0
20260506184534 16 283 4.8 0.0 0.00 0.00 0.00 31 1008.2
20260506183031 15 283 3.2 0.0 0.00 0.00 0.00 31 1008.5
20260506181534 15 282 4.8 0.0 0.00 0.00 0.00 31 1008.7
20260506180035 15 357 4.8 0.0 0.00 0.00 0.00 31 1008.7
20260506174529 15 212 3.2 0.0 0.00 0.00 0.00 32 1008.8
20260506173024 14 168 3.2 0.0 0.00 0.00 0.00 36 1009.4
20260506171537 13 169 1.6 0.0 0.00 0.00 0.00 34 1009.5
20260506170020 13 181 1.6 0.0 0.00 0.00 0.00 37 1009.7
20260506164521 12 175 1.6 0.0 0.00 0.00 0.00 39 1010.1
20260506163021 12 163 1.6 0.0 0.00 0.00 0.00 38 1010.1
20260506161521 11 163 1.6 0.0 0.00 0.00 0.00 39 1010.1
20260506160015 11 163 1.6 0.0 0.00 0.00 0.00 39 1010.1
20260506154510 11 163 0.0 0.0 0.00 0.00 0.00 42 1010.5
20260506153010 9 163 0.0 0.0 0.00 0.00 0.00 45 1010.8
20260506151507 8 163 0.0 0.0 0.00 0.00 0.00 48 1011.0
20260506150008 8 163 0.0 0.0 0.00 0.00 0.00 50 1010.8
20260506144505 7 163 1.6 0.0 0.00 0.00 0.00 50 1011.2
20260506143008 7 51 0.0 0.0 0.00 0.00 0.00 49 1011.3
20260506141501 7 49 0.0 0.0 0.00 0.00 0.00 51 1011.3
20260506140100 6 82 1.6 0.0 0.00 0.00 0.00 54 1010.9
20260506134617 6 82 1.6 0.0 0.00 0.00 0.00 54 1010.9
20260506133049 6 82 1.6 0.0 0.00 0.00 0.00 53 1010.9
20260506131604 5 77 3.2 0.0 0.00 0.00 0.00 55 1010.7
20260506130044 5 77 1.6 0.0 0.00 0.00 0.00 52 1010.5
20260506124541 6 82 4.8 0.0 0.00 0.00 0.00 52 1010.4
20260506123045 6 88 4.8 0.0 0.00 0.00 0.00 51 1010.3
20260506121538 6 82 4.8 0.0 0.00 0.00 0.00 50 1010.1
20260506120035 6 86 4.8 0.0 0.00 0.00 0.00 49 1009.8
20260506114542 6 81 4.8 0.0 0.00 0.00 0.00 49 1010.0
20260506113035 6 79 4.8 0.0 0.00 0.00 0.00 48 1009.9
20260506111528 7 79 3.2 0.0 0.00 0.00 0.00 48 1010.1
20260506110029 7 82 3.2 0.0 0.00 0.00 0.00 46 1010.0
20260506104527 7 82 4.8 0.0 0.00 0.00 0.00 47 1009.9
20260506103028 7 81 3.2 0.0 0.00 0.00 0.00 48 1009.8
20260506101524 7 82 3.2 0.0 0.00 0.00 0.00 47 1009.8
20260506100031 7 80 3.2 0.0 0.00 0.00 0.00 46 1009.8
20260506094521 7 79 3.2 0.0 0.00 0.00 0.00 45 1009.7
20260506093018 7 81 3.2 0.0 0.00 0.00 0.00 45 1009.8
20260506091516 8 81 3.2 0.0 0.00 0.00 0.00 43 1009.8
20260506090013 8 84 3.2 0.0 0.00 0.00 0.00 42 1009.8
20260506084511 8 77 3.2 0.0 0.00 0.00 0.00 40 1009.8
20260506083011 8 77 1.6 0.0 0.00 0.00 0.00 40 1009.8
20260506081513 9 77 3.2 0.0 0.00 0.00 0.00 39 1009.8
20260506073002 9 137 0.0 0.0 0.00 0.00 0.00 39 1009.8
20260506071559 9 136 0.0 0.0 0.00 0.00 0.00 38 1009.5
20260506070123 10 136 1.6 0.0 0.00 0.00 0.00 37 1009.7
20260506061555 10 136 0.0 0.0 0.00 0.00 0.00 35 1009.1
20260506044556 13 150 3.2 0.0 0.00 0.00 0.00 30 1008.3
20260506043056 13 141 4.8 0.0 0.00 0.00 0.00 29 1007.9
20260506041556 14 129 8.0 0.0 0.00 0.00 0.00 28 1007.8
20260506040051 14 151 4.8 0.0 0.00 0.00 0.00 28 1007.6
20260506034557 15 152 3.2 0.0 0.00 0.00 0.00 28 1007.5
20260506033051 15 137 1.6 0.0 0.00 0.00 0.00 27 1007.1
20260506031550 16 146 3.2 0.0 0.00 0.00 0.00 26 1006.7
20260506030050 16 158 1.6 0.0 0.00 0.00 0.00 27 1006.9
20260506024558 17 161 1.6 0.0 0.00 0.00 0.00 26 1006.4
20260506023052 17 172 0.0 0.0 0.00 0.00 0.00 24 1006.1
20260506021549 18 172 1.6 0.0 0.00 0.00 0.00 23 1006.1
20260506020105 19 172 3.2 0.0 0.00 0.00 0.00 21 1006.3
20260506014601 19 155 6.4 0.0 0.00 0.00 0.00 20 1006.3
20260506013048 20 191 4.8 0.0 0.00 0.00 0.00 22 1006.1
20260506011610 20 148 1.6 0.0 0.00 0.00 0.00 20 1006.0
20260506010048 20 148 4.8 0.0 0.00 0.00 0.00 19 1006.3
20260506004600 20 171 4.8 0.0 0.00 0.00 0.00 19 1006.3
20260506003045 20 188 3.2 0.0 0.00 0.00 0.00 21 1006.2
20260506001545 20 136 4.8 0.0 0.00 0.00 0.00 21 1006.3
20260506000110 20 172 3.2 0.0 0.00 0.00 0.00 19 1006.6
20260505234547 20 113 3.2 0.0 0.00 0.00 0.00 22 1006.7
20260505233041 20 312 3.2 0.0 0.00 0.00 0.00 19 1006.8
20260505231539 20 178 4.8 0.0 0.00 0.00 0.00 21 1007.2
20260505230058 20 189 4.8 0.0 0.00 0.00 0.00 21 1007.2
20260505224541 20 165 6.4 0.0 0.00 0.00 0.00 22 1007.5
20260505223039 20 337 6.4 0.0 0.00 0.00 0.00 24 1007.9
20260505221536 20 283 6.4 0.0 0.00 0.00 0.00 23 1007.8
20260505220039 19 241 6.4 0.0 0.00 0.00 0.00 20 1007.9